Hollywood, FL

12:12 PM EST on January 22, 2018 (GMT -0500)
North Perry

Weather History for KHWO - May, 2014

Change the Weather History Date:

Tuesday, May 6, 2014

  Actual Average (KFLL) Record (KFLL)
Temperature  
Mean Temperature 76 °F -  
Max Temperature 86 °F 84 °F 91 °F (1978)
Min Temperature 69 °F 69 °F 51 °F (1921)
Cooling Degree Days 12    
Growing Degree Days 26 (Base 50)    
Moisture  
Dew Point 64 °F    
Average Humidity 62    
Maximum Humidity 84    
Minimum Humidity 46    
Precipitation  
Precipitation 0.00 in - - ()
Sea Level Pressure  
Sea Level Pressure 30.03 in    
Wind  
Wind Speed 5 mph (East)    
Max Wind Speed 14 mph    
Max Gust Speed 21 mph    
Visibility 10 miles    
Events      
Averages and records for this station are not official NWS values.
T = Trace of Precipitation, MM = Missing Value Source: NWS Daily Summary

Daily Weather History Graph

Daily Weather History Graph

Search for Another Location

Airport or City:

Trip Planner

Search our weather history database for the weather conditions in past years. The results will help you decide how hot, cold, wet, or windy it might be!

Date:

Astronomy

May. 06, 2014 Rise Set
Actual Time 6:40 AM EDT 7:55 PM EDT
Civil Twilight 6:15 AM EDT 8:19 PM EDT
Nautical Twilight 5:46 AM EDT 8:48 PM EDT
Astronomical Twilight 5:16 AM EDT 9:19 PM EDT
Moon 12:48 PM EDT (5/6) 1:18 AM EDT (5/6)
Length of Visible Light 14h 03m
Length of Day
13h 14m
Waxing Crescent, 46% of the Moon is Illuminated
May 6
Waxing Crescent
May 6
First Quarter
May 14
Full
May 21
Last Quarter
May 28
New

Hourly Weather History & Observations

Time (EDT) Temp. Heat Index Dew Point Humidity Pressure Visibility Wind Dir Wind Speed Gust Speed Precip Events Conditions
12:53 AM 73.0 °F - 62.1 °F 68% 30.04 in 10.0 mi Calm Calm - N/A   Clear
1:53 AM 72.0 °F - 62.1 °F 71% 30.02 in 10.0 mi Calm Calm - N/A   Clear
2:53 AM 70.0 °F - 62.1 °F 76% 30.01 in 10.0 mi Calm Calm - N/A   Clear
3:53 AM 69.1 °F - 64.0 °F 84% 30.00 in 10.0 mi Calm Calm - N/A   Clear
7:53 AM 72.0 °F - 66.9 °F 84% 30.04 in 10.0 mi Calm Calm - N/A   Clear
8:53 AM 78.1 °F - 66.0 °F 66% 30.05 in 10.0 mi NNW 3.5 mph - N/A   Partly Cloudy
10:53 AM 82.9 °F 83.7 °F 62.1 °F 49% 30.06 in 10.0 mi East 8.1 mph - N/A   Clear
11:53 AM 84.0 °F 85.4 °F 64.0 °F 51% 30.06 in 10.0 mi East 8.1 mph 17.3 mph N/A   Partly Cloudy
12:53 PM 84.9 °F 85.9 °F 63.0 °F 48% 30.05 in 10.0 mi East 5.8 mph - N/A   Clear
1:53 PM 84.0 °F 84.9 °F 63.0 °F 49% 30.04 in 10.0 mi Variable 4.6 mph - N/A   Clear
2:53 PM 84.9 °F 85.9 °F 63.0 °F 48% 30.02 in 10.0 mi East 11.5 mph 20.7 mph N/A   Clear
3:53 PM 84.9 °F 85.4 °F 62.1 °F 46% 30.01 in 10.0 mi ENE 10.4 mph - N/A   Clear
4:53 PM 84.0 °F 85.4 °F 64.0 °F 51% 30.00 in 10.0 mi East 12.7 mph - N/A   Clear
5:53 PM 82.0 °F 83.4 °F 64.0 °F 54% 30.01 in 10.0 mi ENE 12.7 mph - N/A   Clear
6:53 PM 80.1 °F 81.9 °F 64.9 °F 60% 30.01 in 10.0 mi East 13.8 mph - N/A   Clear
7:53 PM 78.1 °F - 64.9 °F 64% 30.02 in 10.0 mi East 10.4 mph - N/A   Clear
8:53 PM 77.0 °F - 66.9 °F 71% 30.03 in 10.0 mi East 11.5 mph - N/A   Clear
9:53 PM 77.0 °F - 64.9 °F 66% 30.04 in 10.0 mi East 8.1 mph - N/A   Clear
10:53 PM 78.1 °F - 62.1 °F 58% 30.05 in 10.0 mi East 10.4 mph - N/A   Clear
11:53 PM 78.1 °F - 66.0 °F 66% 30.05 in 10.0 mi ESE 10.4 mph - N/A   Partly Cloudy